Location: Mannheim
(49.4880°N, 8.4650°E)
Time: 07:28:53
(UTC+01:00)

ISS - Pass Details

Date: 24 November 2022
Orbit: 411 x 420 km, 51.6° (Epoch: 29 November)

Event Time Altitude Azimuth Distance (km) Brightness Sun altitude
Rises 18:38:13 0° 262° (W) 2,345 1.7 -19.6°
Reaches altitude 10° 18:40:19 10° 266° (W) 1,483 0.2 -19.9°
Enters shadow 18:43:31 65° 333° (NNW) 456 -3.6 -20.4°
